Simultaneous Nadir Overpasses (SNOs) Predictions

Prediction of SNOs between GOES-17 and NOAA-20 Satellite Orbit:

Table of predicted SNOs for the next 14.0 days since TLE Epoch: 4/6/2024
Index Date Time (GOES-17) GOES-17 Lat,Lon NOAA-20 Lat,Lon Distance(km) Time Diff (sec)
1 04/06/2024 08:11:42 0.01,-104.67 -0.61,-101.98 307.06 80
2 04/07/2024 20:33:46 -0.01,-104.67 -0.62,-107.32 302.35 80
3 04/08/2024 20:17:48 -0.01,-104.68 0.43,-102.82 212.20 80
4 04/10/2024 08:39:43 0.01,-104.71 0.78,-108.12 389.47 80
5 04/11/2024 08:18:24 0.01,-104.71 -0.21,-103.61 124.93 80
6 04/12/2024 20:40:29 -0.01,-104.70 -0.95,-108.96 484.70 80
7 04/13/2024 20:24:30 -0.01,-104.71 0.05,-104.45 29.80 80
8 04/16/2024 08:27:45 0.03,-104.75 0.16,-105.24 57.09 80
9 04/17/2024 08:06:27 0.03,-104.75 -0.90,-100.75 457.65 80
10 04/18/2024 20:28:31 -0.03,-104.75 -0.31,-106.09 151.38 80
11 04/19/2024 20:12:32 -0.03,-104.76 0.70,-101.58 363.61 80
